This is the latest recevied weather packets stored in our database for station/object NEWPRT. If no packets are shown the sender has not sent any weather packets the latest 10 day(s).
| Time | Temp. | Humidity | Pressure | Rain* | Wind** | Luminosity | Snow |
|---|---|---|---|---|---|---|---|
| 1778197056 | - | 48% | 1019.3 hPa | 0 mm | - | - | - |
| 1778196733 | - | 47% | 1019.3 hPa | 0 mm | - | - | - |
| 1778196411 | - | 47% | 1019.5 hPa | 0 mm | - | - | - |
| 1778196088 | - | 50% | 1019.5 hPa | 0 mm | - | - | - |
| 1778195763 | - | 51% | 1019.6 hPa | 0 mm | - | - | - |
| 1778195441 | - | 47% | 1019.6 hPa | 0 mm | - | - | - |
| 1778195118 | - | 47% | 1019.6 hPa | 0 mm | - | - | - |
| 1778194795 | - | 48% | 1019.6 hPa | 0 mm | - | - | - |
| 1778194472 | - | 48% | 1019.8 hPa | 0 mm | - | - | - |
| 1778194149 | - | 49% | 1019.8 hPa | 0 mm | - | - | - |
| 1778193826 | - | 46% | 1019.7 hPa | 0 mm | - | - | - |
| 1778193503 | - | 48% | 1019.7 hPa | 0 mm | - | - | - |
| 1778193181 | - | 46% | 1019.9 hPa | 0 mm | - | - | - |
| 1778192857 | - | 46% | 1019.8 hPa | 0 mm | - | - | - |
| 1778192534 | - | 48% | 1020.1 hPa | 0 mm | - | - | - |
| 1778192211 | - | 47% | 1020.1 hPa | 0 mm | - | - | - |
| 1778191888 | - | 47% | 1020.2 hPa | 0 mm | - | - | - |
| 1778191565 | - | 48% | 1020.3 hPa | 0 mm | - | - | - |
| 1778191242 | - | 49% | 1020.5 hPa | 0 mm | - | - | - |
| 1778190919 | - | 50% | 1020.8 hPa | 0 mm | - | - | - |
| 1778190596 | - | 50% | 1020.6 hPa | 0 mm | - | - | - |
| 1778190273 | - | 49% | 1021 hPa | 0 mm | - | - | - |
| 1778189949 | - | 48% | 1020.6 hPa | 0 mm | - | - | - |
| 1778189627 | - | 50% | 1020.6 hPa | 0 mm | - | - | - |
| 1778189304 | - | 48% | 1020.9 hPa | 0 mm | - | - | - |
* Rain latest hour (hover to see other rain measurements)
** Current wind speed in m/s (hover to see current wind gust speed)